^^

Weather Underground History

Daily Summary for April 16, 2019 Units:  Metric    English   Both
Daily Weekly Monthly Yearly Custom
  High: Low: Average:
Temperature: 10.9 °C 9.1 °C 9.8 °C
Dew Point: 10.1 °C 8.3 °C 8.9 °C
Humidity: 96% 89% 95%
Wind Speed: 7.6km/h 0km/h 3.1km/h
Wind Gust: 17.7km/h - -
Wind- - West
Pressure: 1002.4 hPa 999.0 hPa -
Precipitation: 0.8 mm    
Historical Graphs
 
 
Tabular Data for April 16, 2019
Time Temperature Dew Point Pressure Wind Wind Speed Wind Gust Humidity Rainfall Rate (Hourly) solar
00:04 9.8 °C 9 °C 999.4 hPa NNE 2.1 km/h 6.4 km/h 95% 0.0 mm 0 W/m2
00:09 9.8 °C 9 °C 999.3 hPa North 3.8 km/h 14.5 km/h 95% 0.0 mm 0 W/m2
00:14 9.8 °C 9 °C 999.3 hPa North 4.2 km/h 12.9 km/h 95% 0.0 mm 0 W/m2
00:19 9.8 °C 9 °C 999.3 hPa NW 0.5 km/h 11.3 km/h 95% 0.0 mm 0 W/m2
00:24 9.8 °C 9 °C 999.1 hPa NNE 2.1 km/h 9.7 km/h 95% 0.0 mm 0 W/m2
00:29 9.8 °C 9 °C 999.0 hPa NW 2.7 km/h 11.3 km/h 95% 0.0 mm 0 W/m2
00:34 9.7 °C 9 °C 999.0 hPa NNW 4.2 km/h 12.9 km/h 95% 0.0 mm 0 W/m2
00:39 9.7 °C 9 °C 999.0 hPa NNW 2.8 km/h 12.9 km/h 95% 0.0 mm 0 W/m2
00:44 9.7 °C 8.9 °C 999.1 hPa NNW 2.8 km/h 8 km/h 95% 0.0 mm 0 W/m2
00:49 9.7 °C 8.9 °C 999.1 hPa North 1.8 km/h 11.3 km/h 95% 0.0 mm 0 W/m2
00:54 9.7 °C 8.9 °C 999.1 hPa NNE 4.7 km/h 11.3 km/h 95% 0.0 mm 0 W/m2
00:59 9.6 °C 8.9 °C 999.0 hPa North 2.4 km/h 9.7 km/h 95% 0.0 mm 0 W/m2
01:04 9.6 °C 8.8 °C 999.0 hPa North 2.8 km/h 12.9 km/h 95% 0.0 mm 0 W/m2
01:09 9.6 °C 8.8 °C 999.0 hPa NE 3.3 km/h 11.3 km/h 95% 0.0 mm 0 W/m2
01:14 9.6 °C 8.8 °C 999.1 hPa North 2.5 km/h 11.3 km/h 95% 0.0 mm 0 W/m2
01:19 9.6 °C 8.8 °C 999.2 hPa NNE 1.6 km/h 8 km/h 95% 0.0 mm 0 W/m2
01:24 9.6 °C 8.8 °C 999.3 hPa NNE 1 km/h 6.4 km/h 95% 0.0 mm 0 W/m2
01:29 9.6 °C 8.8 °C 999.4 hPa NNE 1.8 km/h 9.7 km/h 95% 0.0 mm 0 W/m2
01:34 9.6 °C 8.8 °C 999.4 hPa NNE 1.9 km/h 9.7 km/h 95% 0.0 mm 0 W/m2
01:39 9.6 °C 8.8 °C 999.4 hPa NNE 0.7 km/h 4.8 km/h 95% 0.0 mm 0 W/m2
01:44 9.6 °C 8.8 °C 999.4 hPa NNE 2.5 km/h 9.7 km/h 95% 0.0 mm 0 W/m2
01:49 9.6 °C 8.8 °C 999.3 hPa NNE 1.8 km/h 9.7 km/h 95% 0.0 mm 0 W/m2
01:54 9.5 °C 8.8 °C 999.1 hPa NW 2.4 km/h 11.3 km/h 95% 0.0 mm 0 W/m2
01:59 9.5 °C 8.7 °C 999.0 hPa North 1.3 km/h 9.7 km/h 95% 0.0 mm 0 W/m2
02:04 9.5 °C 8.7 °C 999.1 hPa NW 1 km/h 8 km/h 95% 0.0 mm 0 W/m2
02:09 9.4 °C 8.7 °C 999.1 hPa West 1.2 km/h 6.4 km/h 95% 0.0 mm 0 W/m2
02:14 9.4 °C 8.7 °C 999.1 hPa NE 0.8 km/h 6.4 km/h 95% 0.0 mm 0 W/m2
02:19 9.4 °C 8.6 °C 999.1 hPa North 2.6 km/h 8 km/h 95% 0.0 mm 0 W/m2
02:24 9.4 °C 8.6 °C 999.0 hPa NNE 3.8 km/h 12.9 km/h 95% 0.0 mm 0 W/m2
02:29 9.3 °C 8.6 °C 999.1 hPa North 3.7 km/h 11.3 km/h 95% 0.0 mm 0 W/m2
02:34 9.3 °C 8.6 °C 999.3 hPa NNE 3.3 km/h 12.9 km/h 95% 0.0 mm 0 W/m2
02:39 9.3 °C 8.5 °C 999.3 hPa NNW 1.7 km/h 12.9 km/h 95% 0.0 mm 0 W/m2
02:44 9.3 °C 8.5 °C 999.4 hPa North 1.6 km/h 17.7 km/h 95% 0.0 mm 0 W/m2
02:49 9.3 °C 8.5 °C 999.4 hPa North 1.3 km/h 17.7 km/h 95% 0.0 mm 0 W/m2
02:54 9.3 °C 8.5 °C 999.4 hPa North 3 km/h 8 km/h 95% 0.0 mm 0 W/m2
02:59 9.3 °C 8.5 °C 999.4 hPa NNE 0.6 km/h 6.4 km/h 95% 0.0 mm 0 W/m2
03:04 9.3 °C 8.5 °C 999.4 hPa NNE 1.8 km/h 8 km/h 95% 0.0 mm 0 W/m2
03:09 9.3 °C 8.5 °C 999.4 hPa NNW 2.3 km/h 6.4 km/h 95% 0.0 mm 0 W/m2
03:14 9.3 °C 8.5 °C 999.4 hPa NW 1 km/h 6.4 km/h 95% 0.0 mm 0 W/m2
03:19 9.3 °C 8.5 °C 999.5 hPa NW 0.4 km/h 4.8 km/h 95% 0.0 mm 0 W/m2
03:24 9.3 °C 8.5 °C 999.4 hPa NW 1.2 km/h 8 km/h 95% 0.0 mm 0 W/m2
03:29 9.3 °C 8.5 °C 999.5 hPa NW 0.8 km/h 6.4 km/h 95% 0.0 mm 0 W/m2
03:34 9.3 °C 8.5 °C 999.4 hPa NW 1.9 km/h 6.4 km/h 95% 0.0 mm 0 W/m2
03:39 9.3 °C 8.5 °C 999.4 hPa NW 1.6 km/h 6.4 km/h 95% 0.0 mm 0 W/m2
03:44 9.3 °C 8.5 °C 999.5 hPa NNW 1.4 km/h 6.4 km/h 95% 0.0 mm 0 W/m2
03:49 9.3 °C 8.5 °C 999.6 hPa North 1.9 km/h 8 km/h 95% 0.0 mm 0 W/m2
03:54 9.3 °C 8.5 °C 999.7 hPa North 2 km/h 8 km/h 95% 0.0 mm 0 W/m2
03:59 9.3 °C 8.5 °C 999.8 hPa North 2.2 km/h 6.4 km/h 95% 0.0 mm 0 W/m2
04:04 9.3 °C 8.5 °C 999.9 hPa North 1.8 km/h 8 km/h 95% 0.0 mm 0 W/m2
04:09 9.3 °C 8.5 °C 1000.0 hPa North 3 km/h 6.4 km/h 95% 0.0 mm 0 W/m2
04:14 9.3 °C 8.5 °C 1000.1 hPa North 3.4 km/h 9.7 km/h 95% 0.0 mm 0 W/m2
04:19 9.3 °C 8.5 °C 1000.0 hPa North 2.3 km/h 8 km/h 95% 0.0 mm 0 W/m2
04:24 9.2 °C 8.5 °C 1000.0 hPa North 2.9 km/h 8 km/h 95% 0.0 mm 0 W/m2
04:29 9.2 °C 8.5 °C 1000.0 hPa North 2.9 km/h 6.4 km/h 95% 0.0 mm 0 W/m2
04:34 9.2 °C 8.5 °C 1000.0 hPa North 1.9 km/h 6.4 km/h 95% 0.0 mm 0 W/m2
04:39 9.2 °C 8.5 °C 1000.0 hPa NNW 4.3 km/h 8 km/h 95% 0.0 mm 0 W/m2
04:44 9.2 °C 8.5 °C 1000.1 hPa NNW 1.6 km/h 8 km/h 95% 0.0 mm 0 W/m2
04:49 9.2 °C 8.5 °C 1000.1 hPa NNW 1.1 km/h 6.4 km/h 95% 0.0 mm 0 W/m2
04:54 9.2 °C 8.5 °C 1000.1 hPa NNW 1.8 km/h 6.4 km/h 95% 0.0 mm 0 W/m2
04:59 9.2 °C 8.5 °C 999.9 hPa NNW 1.9 km/h 6.4 km/h 95% 0.0 mm 0 W/m2
05:04 9.2 °C 8.5 °C 1000.0 hPa NNW 3 km/h 8 km/h 95% 0.0 mm 0 W/m2
05:09 9.2 °C 8.4 °C 1000.0 hPa NNW 1.4 km/h 8 km/h 95% 0.0 mm 0 W/m2
05:14 9.2 °C 8.5 °C 1000.0 hPa NNW 2.6 km/h 8 km/h 95% 0.0 mm 0 W/m2
05:19 9.2 °C 8.5 °C 1000.1 hPa NNW 2.2 km/h 6.4 km/h 95% 0.0 mm 0 W/m2
05:24 9.2 °C 8.4 °C 1000.1 hPa NNW 3 km/h 6.4 km/h 95% 0.0 mm 0 W/m2
05:29 9.2 °C 8.4 °C 1000.0 hPa NNW 3.5 km/h 8 km/h 95% 0.0 mm 0 W/m2
05:34 9.2 °C 8.4 °C 1000.1 hPa NW 2.3 km/h 8 km/h 95% 0.0 mm 0 W/m2
05:39 9.2 °C 8.4 °C 1000.1 hPa NW 3 km/h 8 km/h 95% 0.0 mm 0 W/m2
05:44 9.2 °C 8.4 °C 1000.2 hPa NNW 3.6 km/h 9.7 km/h 95% 0.0 mm 0 W/m2
05:49 9.2 °C 8.4 °C 1000.2 hPa NNW 1.9 km/h 9.7 km/h 95% 0.0 mm 0 W/m2
05:54 9.2 °C 8.4 °C 1000.3 hPa NNW 1.9 km/h 4.8 km/h 95% 0.0 mm 0 W/m2
05:59 9.2 °C 8.4 °C 1000.3 hPa NNW 1.6 km/h 6.4 km/h 95% 0.0 mm 0 W/m2
06:04 9.2 °C 8.4 °C 1000.3 hPa NNW 1.9 km/h 6.4 km/h 95% 0.0 mm 0 W/m2
06:09 9.2 °C 8.4 °C 1000.1 hPa NNW 0.9 km/h 4.8 km/h 95% 0.0 mm 0 W/m2
06:14 9.2 °C 8.4 °C 1000.0 hPa NNW 2.6 km/h 6.4 km/h 95% 0.0 mm 0 W/m2
06:19 9.2 °C 8.4 °C 1000.0 hPa North 2.8 km/h 8 km/h 95% 0.0 mm 0 W/m2
06:24 9.2 °C 8.4 °C 1000.0 hPa NNE 1.5 km/h 6.4 km/h 95% 0.0 mm 0 W/m2
06:29 9.1 °C 8.4 °C 999.9 hPa North 1.5 km/h 6.4 km/h 95% 0.0 mm 0 W/m2
06:34 9.1 °C 8.4 °C 1000.0 hPa NNW 1.4 km/h 6.4 km/h 95% 0.0 mm 0 W/m2
06:39 9.1 °C 8.4 °C 1000.1 hPa NNW 2.7 km/h 8 km/h 95% 0.0 mm 0 W/m2
06:44 9.1 °C 8.4 °C 1000.2 hPa NNW 1.7 km/h 8 km/h 95% 0.0 mm 0 W/m2
06:49 9.1 °C 8.4 °C 1000.3 hPa NNW 1.3 km/h 6.4 km/h 95% 0.0 mm 0 W/m2
06:54 9.1 °C 8.3 °C 1000.4 hPa NNW 1.9 km/h 6.4 km/h 95% 0.0 mm 0 W/m2
06:59 9.1 °C 8.3 °C 1000.6 hPa NNW 0.3 km/h 4.8 km/h 95% 0.0 mm 0 W/m2
07:04 9.1 °C 8.3 °C 1000.8 hPa NNW 0.6 km/h 4.8 km/h 95% 0.0 mm 0 W/m2
07:09 9.1 °C 8.3 °C 1000.9 hPa NNW 0.9 km/h 4.8 km/h 95% 0.0 mm 0 W/m2
07:14 9.1 °C 8.4 °C 1001.0 hPa Calm   4.8 km/h 95% 0.0 mm 0 W/m2
07:19 9.1 °C 8.4 °C 1001.2 hPa NNW 0.1 km/h 1.6 km/h 95% 0.0 mm 0 W/m2
07:24 9.1 °C 8.4 °C 1001.3 hPa NNW 0.1 km/h 1.6 km/h 95% 0.0 mm 0 W/m2
07:29 9.1 °C 8.4 °C 1001.4 hPa NNW 1.2 km/h 4.8 km/h 95% 0.0 mm 0 W/m2
07:34 9.1 °C 8.4 °C 1001.4 hPa NNW 2.2 km/h 4.8 km/h 95% 0.0 mm 0 W/m2
07:39 9.2 °C 8.4 °C 1001.5 hPa NNW 1.9 km/h 4.8 km/h 95% 0.0 mm 0 W/m2
07:44 9.2 °C 8.4 °C 1001.5 hPa NNW 2.8 km/h 4.8 km/h 95% 0.0 mm 0 W/m2
07:49 9.2 °C 8.5 °C 1001.6 hPa NNW 1.2 km/h 4.8 km/h 95% 0.0 mm 0 W/m2
07:54 9.2 °C 8.5 °C 1001.6 hPa NNW 1.1 km/h 4.8 km/h 95% 0.0 mm 0 W/m2
07:59 9.2 °C 8.5 °C 1001.6 hPa NNW 0.6 km/h 4.8 km/h 95% 0.0 mm 5 W/m2
08:04 9.3 °C 8.5 °C 1001.7 hPa NNW 2.7 km/h 4.8 km/h 95% 0.0 mm 9 W/m2
08:09 9.3 °C 8.5 °C 1001.8 hPa NNW 1.7 km/h 4.8 km/h 95% 0.0 mm 14 W/m2
08:14 9.3 °C 8.5 °C 1001.7 hPa NNW 1.2 km/h 6.4 km/h 95% 0.0 mm 19 W/m2
08:19 9.3 °C 8.6 °C 1001.7 hPa NNW 2.2 km/h 6.4 km/h 95% 0.0 mm 21 W/m2
08:24 9.3 °C 8.6 °C 1001.7 hPa NNW 1 km/h 4.8 km/h 95% 0.0 mm 23 W/m2
08:29 9.4 °C 8.6 °C 1001.7 hPa NNW 0.2 km/h 3.2 km/h 95% 0.0 mm 26 W/m2
08:34 9.4 °C 8.6 °C 1001.8 hPa NNW 0.1 km/h 1.6 km/h 95% 0.0 mm 32 W/m2
08:39 9.4 °C 8.7 °C 1001.8 hPa NNW 1.5 km/h 3.2 km/h 95% 0.0 mm 42 W/m2
08:44 9.4 °C 8.7 °C 1001.9 hPa NNW 1.3 km/h 3.2 km/h 95% 0.0 mm 40 W/m2
08:49 9.4 °C 8.7 °C 1001.9 hPa NNW 1.3 km/h 3.2 km/h 95% 0.0 mm 46 W/m2
08:54 9.5 °C 8.7 °C 1001.9 hPa NNW 0.1 km/h 1.6 km/h 95% 0.0 mm 60 W/m2
08:59 9.5 °C 8.8 °C 1001.9 hPa NNW 0.1 km/h 1.6 km/h 95% 0.0 mm 60 W/m2
09:04 9.6 °C 8.8 °C 1001.8 hPa Calm     95% 0.0 mm 86 W/m2
09:09 9.6 °C 8.8 °C 1001.8 hPa Calm     95% 0.0 mm 135 W/m2
09:14 9.7 °C 9 °C 1001.8 hPa Calm     95.1% 0.0 mm 148 W/m2
09:19 9.9 °C 9.3 °C 1001.7 hPa Calm     96% 0.0 mm 135 W/m2
09:24 10 °C 9.3 °C 1001.7 hPa NNW 0.1 km/h 3.2 km/h 95.4% 0.0 mm 146 W/m2
09:29 10.1 °C 9.3 °C 1001.7 hPa NNW 0.6 km/h 3.2 km/h 95% 0.0 mm 162 W/m2
09:34 10.2 °C 9.5 °C 1001.8 hPa Calm   3.2 km/h 95.5% 0.0 mm 190 W/m2
09:39 10.3 °C 9.7 °C 1001.8 hPa Calm   1.6 km/h 96% 0.0 mm 171 W/m2
09:44 10.3 °C 9.7 °C 1001.8 hPa Calm     96% 0.0 mm 144 W/m2
09:49 10.3 °C 9.7 °C 1001.8 hPa NNW 2.3 km/h 4.8 km/h 96% 0.0 mm 86 W/m2
09:54 10.3 °C 9.7 °C 1001.8 hPa WNW 3.9 km/h 8 km/h 96% 0.0 mm 65 W/m2
09:59 10.2 °C 9.6 °C 1001.9 hPa WNW 3.7 km/h 8 km/h 96% 0.0 mm 60 W/m2
10:04 10.2 °C 9.5 °C 1001.9 hPa WNW 3.1 km/h 8 km/h 96% 0.0 mm 60 W/m2
10:09 10.1 °C 9.5 °C 1001.9 hPa WNW 4.5 km/h 8 km/h 96% 0.0 mm 79 W/m2
10:14 10.1 °C 9.4 °C 1002.0 hPa WNW 4.8 km/h 8 km/h 95.4% 0.0 mm 90 W/m2
10:19 10.1 °C 9.4 °C 1002.1 hPa WNW 4.2 km/h 8 km/h 95.4% 0.0 mm 109 W/m2
10:24 10.1 °C 9.5 °C 1002.2 hPa WNW 5 km/h 8 km/h 96% 0.0 mm 114 W/m2
10:29 10.1 °C 9.5 °C 1002.3 hPa WNW 3.2 km/h 8 km/h 95.8% 0.0 mm 107 W/m2
10:34 10.2 °C 9.5 °C 1002.3 hPa WNW 4.1 km/h 8 km/h 95.6% 0.0 mm 67 W/m2
10:39 10.2 °C 9.4 °C 1002.3 hPa WNW 4 km/h 8 km/h 95% 0.0 mm 72 W/m2
10:44 10.2 °C 9.4 °C 1002.3 hPa West 4.9 km/h 11.3 km/h 95% 0.0 mm 72 W/m2
10:49 10.1 °C 9.4 °C 1002.4 hPa West 5.6 km/h 11.3 km/h 95% 0.0 mm 77 W/m2
10:54 10.1 °C 9.3 °C 1002.4 hPa WSW 5.4 km/h 8 km/h 95% 0.0 mm 111 W/m2
10:59 10.1 °C 9.4 °C 1002.4 hPa West 4.9 km/h 8 km/h 95% 0.0 mm 127 W/m2
11:04 10.2 °C 9.5 °C 1002.3 hPa West 5.6 km/h 9.7 km/h 95% 0.0 mm 144 W/m2
11:09 10.3 °C 9.6 °C 1002.3 hPa WSW 7 km/h 14.5 km/h 95% 0.0 mm 195 W/m2
11:14 10.3 °C 9.6 °C 1002.3 hPa SW 6.3 km/h 14.5 km/h 95% 0.0 mm 255 W/m2
11:19 10.5 °C 9.8 °C 1002.3 hPa WSW 6.2 km/h 11.3 km/h 95.5% 0.0 mm 315 W/m2
11:24 10.7 °C 10 °C 1002.2 hPa West 7.4 km/h 11.3 km/h 95% 0.0 mm 278 W/m2
11:29 10.7 °C 9.9 °C 1002.3 hPa West 6.6 km/h 11.3 km/h 95% 0.0 mm 248 W/m2
11:34 10.6 °C 9.9 °C 1002.3 hPa West 4.5 km/h 8 km/h 95% 0.0 mm 169 W/m2
11:39 10.7 °C 9.9 °C 1002.3 hPa WSW 6.1 km/h 11.3 km/h 95% 0.0 mm 128 W/m2
11:44 10.7 °C 9.9 °C 1002.3 hPa WSW 7.2 km/h 11.3 km/h 95% 0.0 mm 104 W/m2
11:49 10.6 °C 9.8 °C 1002.2 hPa West 6.7 km/h 14.5 km/h 95% 0.0 mm 127 W/m2
11:54 10.6 °C 9.8 °C 1002.2 hPa West 7.2 km/h 14.5 km/h 95% 0.0 mm 134 W/m2
11:59 10.6 °C 9.8 °C 1002.2 hPa WSW 6.5 km/h 14.5 km/h 95% 0.0 mm 141 W/m2
12:04 10.6 °C 9.9 °C 1002.2 hPa West 7.1 km/h 12.9 km/h 95% 0.0 mm 148 W/m2
12:09 10.7 °C 10 °C 1002.2 hPa West 6.8 km/h 11.3 km/h 95% 0.0 mm 221 W/m2
12:14 10.9 °C 10.1 °C 1002.2 hPa WSW 6.5 km/h 11.3 km/h 95% 0.0 mm 216 W/m2
12:19 10.9 °C 10 °C 1002.3 hPa WSW 5.8 km/h 11.3 km/h 94% 0.0 mm 76 W/m2
12:24 10.8 °C 9.9 °C 1002.3 hPa SW 6.4 km/h 9.7 km/h 94% 0.0 mm 123 W/m2
12:29 10.8 °C 9.9 °C 1002.3 hPa WSW 6.8 km/h 11.3 km/h 94% 0.0 mm 130 W/m2
12:34 10.8 °C 9.7 °C 1002.4 hPa WSW 5.4 km/h 11.3 km/h 93.3% 0.0 mm 128 W/m2
12:39 10.8 °C 9.9 °C 1002.3 hPa WSW 5.8 km/h 8 km/h 93.8% 0.0 mm 91 W/m2
12:44 10.8 °C 9.8 °C 1002.3 hPa WSW 5.6 km/h 9.7 km/h 93% 0.0 mm 97 W/m2
12:49 10.8 °C 9.7 °C 1002.3 hPa WSW 6.8 km/h 11.3 km/h 93% 0.0 mm 139 W/m2
12:54 10.8 °C 9.7 °C 1002.3 hPa WSW 6.7 km/h 11.3 km/h 93% 0.0 mm 144 W/m2
12:59 10.8 °C 9.7 °C 1002.2 hPa WSW 6.7 km/h 12.9 km/h 92.7% 0.0 mm 111 W/m2
13:04 10.8 °C 9.6 °C 1002.2 hPa WSW 6.6 km/h 12.9 km/h 92% 0.0 mm 76 W/m2
13:09 10.8 °C 9.6 °C 1002.2 hPa WSW 4.6 km/h 8 km/h 92% 0.0 mm 135 W/m2
13:14 10.9 °C 9.6 °C 1002.2 hPa SW 6.8 km/h 14.5 km/h 92% 0.0 mm 149 W/m2
13:19 10.9 °C 9.6 °C 1002.2 hPa WSW 7.2 km/h 14.5 km/h 92% 0.0 mm 104 W/m2
13:24 10.8 °C 9.4 °C 1002.1 hPa WSW 7.4 km/h 14.5 km/h 91.3% 0.0 mm 56 W/m2
13:29 10.6 °C 9.2 °C 1002.1 hPa WSW 7.2 km/h 11.3 km/h 91% 0.0 mm 86 W/m2
13:34 10.6 °C 9.2 °C 1002.1 hPa WSW 7.6 km/h 11.3 km/h 91% 0.0 mm 132 W/m2
13:39 10.7 °C 9.3 °C 1002.1 hPa WSW 6.1 km/h 11.3 km/h 91% 0.0 mm 160 W/m2
13:44 10.8 °C 9.4 °C 1002.1 hPa West 7.2 km/h 12.9 km/h 91% 0.0 mm 160 W/m2
13:49 10.9 °C 9.5 °C 1002.1 hPa West 7.6 km/h 12.9 km/h 91% 0.0 mm 118 W/m2
13:54 10.9 °C 9.3 °C 1002.1 hPa WSW 6.9 km/h 11.3 km/h 90.3% 0.0 mm 123 W/m2
13:59 10.9 °C 9.3 °C 1002.1 hPa WSW 6.3 km/h 9.7 km/h 90% 0.0 mm 121 W/m2
14:04 10.8 °C 9.3 °C 1002.1 hPa West 6.9 km/h 12.9 km/h 90% 0.0 mm 113 W/m2
14:09 10.8 °C 9.3 °C 1002.2 hPa West 7.4 km/h 11.3 km/h 90% 0.0 mm 134 W/m2
14:14 10.9 °C 9.2 °C 1002.2 hPa WSW 6.1 km/h 9.7 km/h 89.5% 0.0 mm 137 W/m2
14:19 10.9 °C 9.1 °C 1002.2 hPa WSW 6.3 km/h 11.3 km/h 89% 0.0 mm 105 W/m2
14:24 10.9 °C 9.1 °C 1002.2 hPa WSW 5.1 km/h 11.3 km/h 89% 0.0 mm 90 W/m2
14:29 10.9 °C 9.2 °C 1002.3 hPa WSW 6.4 km/h 11.3 km/h 89% 0.0 mm 69 W/m2
14:34 10.9 °C 9.1 °C 1002.3 hPa WSW 4.9 km/h 11.3 km/h 89% 0.0 mm 74 W/m2
Compliments of Weather Underground - 3.25 mb